FW1856 Weather Reports


time (UTC)temp
F
wind
direction
speed
knots
gust
knots
rain 1hr
in
rain 24hr
in
rain mn
in
humidity
%
barometer
mb
20211026170121 50 124 0.0 0.0 0.00 0.23 0.07 87 1004.0
20211026165122 50 26 0.0 0.0 0.00 0.23 0.07 87 1003.9
20211026164121 49 107 0.0 0.0 0.01 0.23 0.07 88 1004.0
20211026163121 49 101 0.0 0.0 0.01 0.23 0.07 89 1004.2
20211026162121 49 146 0.0 0.0 0.01 0.23 0.07 89 1004.2
20211026161121 49 86 0.0 0.0 0.01 0.23 0.07 89 1004.3
20211026160121 49 157 0.0 0.0 0.01 0.23 0.07 89 1004.3
20211026155121 49 100 0.0 0.0 0.02 0.23 0.07 89 1004.2
20211026154121 49 123 0.0 0.0 0.01 0.21 0.05 89 1004.2
20211026153122 49 116 0.0 0.0 0.02 0.21 0.05 89 1004.1
20211026152122 49 117 0.0 0.0 0.02 0.21 0.05 89 1004.1
20211026151122 49 126 0.0 0.0 0.01 0.20 0.05 89 1004.1
20211026150121 49 93 0.0 0.0 0.01 0.20 0.05 89 1004.1
20211026145121 49 100 0.0 0.0 0.01 0.20 0.03 89 1004.0
20211026144121 49 80 0.0 0.0 0.01 0.20 0.03 89 1004.0
20211026143121 49 74 0.0 0.0 0.00 0.18 0.02 89 1004.0
20211026142121 49 105 0.0 0.0 0.00 0.18 0.02 89 1004.0
20211026141121 49 99 0.0 0.0 0.00 0.18 0.02 89 1004.1
20211026140121 49 85 0.0 0.0 0.01 0.18 0.02 89 1004.2
20211026135121 49 121 0.0 0.0 0.00 0.18 0.01 89 1004.2
20211026134121 49 113 0.0 0.0 0.00 0.18 0.01 89 1004.1
20211026133123 49 114 0.0 0.0 0.00 0.18 0.01 88 1004.0
20211026132121 49 80 0.0 0.0 0.00 0.18 0.01 88 1004.0
20211026131121 49 96 0.0 0.0 0.00 0.18 0.01 88 1004.0
20211026130121 50 157 0.0 0.0 0.00 0.17 0.00 88 1004.1
20211026125121 50 100 0.0 0.0 0.00 0.17 0.00 88 1004.1
20211026124121 50 101 0.0 0.0 0.00 0.17 0.00 88 1004.1
20211026123121 50 126 0.0 0.0 0.00 0.17 0.00 88 1004.1
20211026122121 50 123 0.0 0.0 0.00 0.17 0.00 88 1004.1
20211026121121 50 100 0.0 0.0 0.00 0.17 0.00 87 1003.9
20211026120121 50 113 0.0 0.0 0.00 0.17 0.00 87 1004.0
20211026115121 50 104 0.0 0.0 0.00 0.17 0.00 87 1004.0
20211026114121 50 147 0.0 0.0 0.00 0.17 0.00 86 1003.9
20211026113122 50 92 0.0 0.0 0.00 0.17 0.00 86 1003.8
20211026112121 50 80 0.0 0.0 0.00 0.15 0.00 85 1003.7
20211026111121 50 95 0.0 0.0 0.00 0.15 0.00 84 1003.6
20211026110121 50 86 0.0 0.0 0.00 0.15 0.00 84 1003.6
20211026105121 50 89 0.0 0.0 0.00 0.15 0.00 84 1003.5
20211026104121 50 52 0.0 0.0 0.00 0.15 0.00 84 1003.4
20211026103121 50 92 0.0 0.0 0.00 0.15 0.00 85 1003.4
20211026102121 50 71 0.0 0.0 0.00 0.15 0.00 85 1003.4
20211026101121 50 103 0.0 0.0 0.00 0.15 0.00 85 1003.2
20211026100121 49 84 0.0 0.0 0.00 0.15 0.00 85 1003.2
20211026095121 49 90 0.0 0.0 0.00 0.15 0.00 85 1003.1
20211026094121 49 96 0.0 0.0 0.00 0.15 0.00 85 1003.0
20211026093121 49 97 0.0 0.0 0.00 0.15 0.00 84 1002.8
20211026092121 50 92 0.0 0.0 0.00 0.15 0.00 83 1002.7
20211026091121 50 76 0.0 0.0 0.00 0.15 0.00 81 1002.5
20211026090121 50 92 0.0 0.0 0.00 0.15 0.00 80 1002.4
20211026085121 50 101 0.0 0.0 0.00 0.17 0.00 80 1002.2
20211026084122 50 83 0.0 0.0 0.00 0.17 0.00 80 1002.1
20211026083121 50 126 0.0 0.0 0.00 0.17 0.00 80 1002.0
20211026082121 50 108 0.0 0.0 0.00 0.17 0.00 81 1002.0
20211026081121 51 131 0.0 0.0 0.00 0.17 0.00 81 1001.7
20211026080121 51 125 0.0 0.0 0.00 0.17 0.00 81 1001.7
20211026075121 51 93 0.0 0.0 0.00 0.17 0.00 81 1001.7
20211026074121 51 108 0.0 0.0 0.00 0.17 0.00 80 1001.6
20211026073121 51 137 0.0 0.0 0.00 0.17 0.00 80 1001.5
20211026072121 51 134 0.0 0.0 0.00 0.17 0.00 80 1001.5
20211026071121 51 150 0.0 0.0 0.00 0.17 0.00 79 1001.4
20211026070121 51 133 0.0 0.0 0.00 0.17 0.00 80 1001.4
20211026065122 51 113 0.0 0.0 0.00 0.17 0.17 80 1001.3
20211026064121 51 101 0.0 0.0 0.00 0.17 0.17 80 1001.1
20211026063121 51 116 0.0 0.0 0.00 0.17 0.17 80 1001.1
20211026062121 52 98 0.0 0.0 0.00 0.17 0.17 80 1001.0
20211026061121 52 187 0.0 0.0 0.00 0.17 0.17 81 1000.7
20211026060122 52 234 0.0 0.0 0.00 0.17 0.17 81 1000.7
20211026055122 52 123 0.0 0.0 0.00 0.17 0.17 82 1000.4
20211026054121 52 161 0.0 0.0 0.00 0.17 0.17 82 1000.5
20211026053121 52 134 0.0 0.0 0.00 0.17 0.17 83 1000.3
20211026052122 52 160 0.0 0.0 0.00 0.17 0.17 83 1000.1
20211026051122 51 117 0.0 0.0 0.00 0.17 0.17 84 999.9